Location: Zagreb
(45.8000°N, 16.0000°E)
Time: 01:35:04
(UTC+02:00)

Transit 2A Rocket - Pass Details

Date: 29 January 2022
Orbit: 592 x 909 km, 66.7° (Epoch: 26 May)

Event Time Altitude Azimuth Distance (km) Brightness Sun altitude
Rises 16:27:31 0° 170° (S) 3,468 8.7 3.8°
Reaches altitude 10° 16:30:28 10° 156° (SSE) 2,562 7.8 3.3°
Maximum altitude 16:35:02 23° 107° (ESE) 1,828 6.6 2.6°
Drops below altitude 10° 16:39:39 10° 57° (ENE) 2,598 7.1 1.9°
Sets 16:42:39 0° 44° (NE) 3,530 7.8 1.4°
